Time,TemperatureF,DewpointF,PressureIn,WindDirection,WindDirectionDegrees,WindSpeedMPH,WindSpeedGustMPH,Humidity,HourlyPrecipIn,Conditions,Clouds,dailyrainin,SolarRadiationWatts/m^2,SoftwareType,DateUTC
2013-07-31 00:14:00,63.4,62.0,30.13,WSW,238,0.0,-999.0,94,-99.99,,,0.00,0,weatherlink.com 1.10,2013-07-31 04:14:00,
2013-07-31 00:29:00,63.2,62.0,30.13,WSW,238,0.0,-999.0,95,-99.99,,,0.00,0,weatherlink.com 1.10,2013-07-31 04:29:00,
2013-07-31 00:44:00,63.0,62.0,30.13,WSW,238,0.0,-999.0,95,-99.99,,,0.00,0,weatherlink.com 1.10,2013-07-31 04:44:00,
2013-07-31 01:00:00,62.6,61.0,30.14,WSW,238,0.0,-999.0,95,-99.99,,,0.00,0,weatherlink.com 1.10,2013-07-31 05:00:00,
2013-07-31 01:15:00,62.1,61.0,30.13,WSW,238,0.0,-999.0,95,-99.99,,,0.00,0,weatherlink.com 1.10,2013-07-31 05:15:00,
2013-07-31 01:30:00,61.7,61.0,30.14,WSW,238,0.0,-999.0,96,-99.99,,,0.00,0,weatherlink.com 1.10,2013-07-31 05:30:00,
2013-07-31 01:45:00,61.3,60.0,30.13,WSW,238,0.0,-999.0,96,-99.99,,,0.00,0,weatherlink.com 1.10,2013-07-31 05:45:00,
2013-07-31 02:00:00,60.9,60.0,30.13,WSW,238,0.0,-999.0,96,-99.99,,,0.00,0,weatherlink.com 1.10,2013-07-31 06:00:00,
2013-07-31 02:15:00,60.7,60.0,30.13,WSW,238,0.0,-999.0,97,-99.99,,,0.00,0,weatherlink.com 1.10,2013-07-31 06:15:00,
2013-07-31 02:45:00,60.2,59.0,30.13,WSW,238,0.0,-999.0,97,-99.99,,,0.00,0,weatherlink.com 1.10,2013-07-31 06:45:00,
2013-07-31 03:00:00,60.0,59.0,30.13,WSW,238,0.0,-999.0,97,-99.99,,,0.00,0,weatherlink.com 1.10,2013-07-31 07:00:00,
2013-07-31 03:15:00,59.8,59.0,30.13,WSW,238,0.0,-999.0,97,-99.99,,,0.00,0,weatherlink.com 1.10,2013-07-31 07:15:00,
2013-07-31 03:30:00,59.6,59.0,30.13,WSW,238,0.0,-999.0,97,-99.99,,,0.00,0,weatherlink.com 1.10,2013-07-31 07:30:00,
2013-07-31 03:45:00,59.3,59.0,30.13,WSW,238,0.0,-999.0,97,-99.99,,,0.00,0,weatherlink.com 1.10,2013-07-31 07:45:00,
2013-07-31 04:00:00,59.0,58.0,30.13,WSW,238,0.0,-999.0,97,-99.99,,,0.00,0,weatherlink.com 1.10,2013-07-31 08:00:00,
2013-07-31 04:15:00,58.8,58.0,30.13,WSW,238,0.0,-999.0,97,-99.99,,,0.00,0,weatherlink.com 1.10,2013-07-31 08:15:00,
2013-07-31 04:30:00,58.6,58.0,30.13,WSW,238,0.0,-999.0,98,-99.99,,,0.00,0,weatherlink.com 1.10,2013-07-31 08:30:00,
2013-07-31 04:45:00,58.5,58.0,30.14,WSW,238,0.0,-999.0,98,-99.99,,,0.00,0,weatherlink.com 1.10,2013-07-31 08:45:00,
2013-07-31 05:00:00,58.4,58.0,30.14,WSW,238,0.0,-999.0,98,-99.99,,,0.00,0,weatherlink.com 1.10,2013-07-31 09:00:00,
2013-07-31 05:15:00,58.5,58.0,30.14,WSW,238,0.0,-999.0,98,-99.99,,,0.00,0,weatherlink.com 1.10,2013-07-31 09:15:00,
2013-07-31 05:30:00,58.4,58.0,30.15,WSW,238,0.0,-999.0,98,-99.99,,,0.00,0,weatherlink.com 1.10,2013-07-31 09:30:00,
2013-07-31 05:45:00,58.1,58.0,30.15,WSW,238,0.0,-999.0,98,-99.99,,,0.00,0,weatherlink.com 1.10,2013-07-31 09:45:00,
2013-07-31 06:00:00,58.1,58.0,30.15,WSW,238,0.0,-999.0,98,-99.99,,,0.00,5,weatherlink.com 1.10,2013-07-31 10:00:00,
2013-07-31 06:15:00,58.1,58.0,30.16,WSW,238,0.0,-999.0,98,-99.99,,,0.00,16,weatherlink.com 1.10,2013-07-31 10:15:00,
2013-07-31 06:30:00,58.0,58.0,30.16,WSW,238,0.0,-999.0,98,-99.99,,,0.00,30,weatherlink.com 1.10,2013-07-31 10:30:00,
2013-07-31 06:45:00,58.3,58.0,30.16,WSW,238,0.0,-999.0,99,-99.99,,,0.00,54,weatherlink.com 1.10,2013-07-31 10:45:00,
2013-07-31 07:00:00,59.4,59.0,30.16,WSW,238,0.0,-999.0,99,-99.99,,,0.00,116,weatherlink.com 1.10,2013-07-31 11:00:00,
2013-07-31 07:15:00,60.9,61.0,30.17,WSW,238,0.0,-999.0,99,-99.99,,,0.00,165,weatherlink.com 1.10,2013-07-31 11:15:00,
2013-07-31 07:30:00,62.9,62.0,30.17,WSW,238,0.0,-999.0,98,-99.99,,,0.00,135,weatherlink.com 1.10,2013-07-31 11:30:00,
2013-07-31 07:45:00,64.6,63.0,30.16,WSW,238,0.0,-999.0,95,-99.99,,,0.00,218,weatherlink.com 1.10,2013-07-31 11:45:00,
2013-07-31 08:00:00,66.6,64.0,30.16,WSW,238,0.0,-999.0,92,-99.99,,,0.00,230,weatherlink.com 1.10,2013-07-31 12:00:00,
2013-07-31 08:15:00,68.5,65.0,30.16,WSW,238,0.0,-999.0,87,-99.99,,,0.00,301,weatherlink.com 1.10,2013-07-31 12:15:00,
2013-07-31 08:30:00,70.2,65.0,30.16,WSW,238,0.0,-999.0,82,-99.99,,,0.00,396,weatherlink.com 1.10,2013-07-31 12:30:00,
2013-07-31 08:45:00,71.7,65.0,30.16,WSW,239,0.0,-999.0,78,-99.99,,,0.00,448,weatherlink.com 1.10,2013-07-31 12:45:00,
2013-07-31 09:00:00,73.6,64.0,30.16,WSW,239,0.0,-999.0,71,-99.99,,,0.00,533,weatherlink.com 1.10,2013-07-31 13:00:00,
2013-07-31 09:15:00,75.1,64.0,30.15,WSW,239,0.0,-999.0,69,-99.99,,,0.00,545,weatherlink.com 1.10,2013-07-31 13:15:00,
2013-07-31 09:30:00,76.8,64.0,30.15,WSW,239,1.0,-999.0,64,-99.99,,,0.00,613,weatherlink.com 1.10,2013-07-31 13:30:00,
2013-07-31 09:45:00,77.1,62.0,30.14,WSW,239,0.0,-999.0,59,-99.99,,,0.00,707,weatherlink.com 1.10,2013-07-31 13:45:00,
2013-07-31 10:00:00,78.8,63.0,30.15,WSW,239,0.0,-999.0,59,-99.99,,,0.00,596,weatherlink.com 1.10,2013-07-31 14:00:00,
2013-07-31 10:16:00,78.8,62.0,30.14,WSW,241,0.0,-999.0,57,-99.99,,,0.00,631,weatherlink.com 1.10,2013-07-31 14:16:00,
2013-07-31 10:31:00,79.4,63.0,30.14,SSW,194,0.0,-999.0,57,-99.99,,,0.00,867,weatherlink.com 1.10,2013-07-31 14:31:00,
2013-07-31 10:46:00,78.7,62.0,30.14,ESE,106,1.0,-999.0,57,-99.99,,,0.00,568,weatherlink.com 1.10,2013-07-31 14:46:00,
2013-07-31 11:01:00,80.0,63.0,30.14,ESE,105,2.0,-999.0,56,-99.99,,,0.00,951,weatherlink.com 1.10,2013-07-31 15:01:00,
2013-07-31 11:16:00,79.8,63.0,30.14,East,90,0.0,-999.0,56,-99.99,,,0.00,394,weatherlink.com 1.10,2013-07-31 15:16:00,
2013-07-31 11:31:00,79.4,62.0,30.14,SW,221,0.0,-999.0,56,-99.99,,,0.00,496,weatherlink.com 1.10,2013-07-31 15:31:00,
2013-07-31 11:46:00,80.0,62.0,30.13,NNW,345,1.0,-999.0,54,-99.99,,,0.00,802,weatherlink.com 1.10,2013-07-31 15:46:00,
2013-07-31 12:01:00,79.4,62.0,30.13,SSW,197,0.0,-999.0,56,-99.99,,,0.00,907,weatherlink.com 1.10,2013-07-31 16:01:00,
2013-07-31 12:16:00,79.6,62.0,30.13,SSW,197,0.0,-999.0,56,-99.99,,,0.00,311,weatherlink.com 1.10,2013-07-31 16:16:00,
2013-07-31 12:31:00,80.2,62.0,30.13,South,186,0.0,-999.0,54,-99.99,,,0.00,766,weatherlink.com 1.10,2013-07-31 16:31:00,
2013-07-31 12:46:00,80.3,62.0,30.12,East,94,1.0,-999.0,54,-99.99,,,0.00,295,weatherlink.com 1.10,2013-07-31 16:46:00,
2013-07-31 13:31:00,81.4,61.0,30.11,NNE,13,2.0,-999.0,51,-99.99,,,0.00,1113,weatherlink.com 1.10,2013-07-31 17:31:00,
2013-07-31 13:46:00,82.1,63.0,30.10,SW,218,1.0,-999.0,53,-99.99,,,0.00,1048,weatherlink.com 1.10,2013-07-31 17:46:00,
2013-07-31 14:16:00,80.2,63.0,30.10,East,96,0.0,-999.0,55,-99.99,,,0.00,229,weatherlink.com 1.10,2013-07-31 18:16:00,
2013-07-31 14:31:00,79.8,63.0,30.10,ESE,103,0.0,-999.0,56,-99.99,,,0.00,406,weatherlink.com 1.10,2013-07-31 18:31:00,
2013-07-31 14:46:00,79.8,63.0,30.09,East,91,4.0,-999.0,57,-99.99,,,0.00,362,weatherlink.com 1.10,2013-07-31 18:46:00,
2013-07-31 15:16:00,78.7,63.0,30.09,ESE,116,1.0,-999.0,59,-99.99,,,0.00,636,weatherlink.com 1.10,2013-07-31 19:16:00,
2013-07-31 15:31:00,79.4,63.0,30.08,ESE,121,1.0,-999.0,58,-99.99,,,0.00,343,weatherlink.com 1.10,2013-07-31 19:31:00,
2013-07-31 15:46:00,79.1,63.0,30.08,East,83,1.0,-999.0,59,-99.99,,,0.00,443,weatherlink.com 1.10,2013-07-31 19:46:00,
2013-07-31 16:01:00,79.7,63.0,30.07,ENE,70,5.0,-999.0,57,-99.99,,,0.00,239,weatherlink.com 1.10,2013-07-31 20:01:00,
2013-07-31 16:16:00,78.9,64.0,30.07,SW,214,2.0,-999.0,60,-99.99,,,0.00,239,weatherlink.com 1.10,2013-07-31 20:16:00,
2013-07-31 16:31:00,79.4,64.0,30.07,East,81,2.0,-999.0,60,-99.99,,,0.00,374,weatherlink.com 1.10,2013-07-31 20:31:00,
2013-07-31 16:46:00,79.2,64.0,30.07,SSE,148,0.0,-999.0,59,-99.99,,,0.00,193,weatherlink.com 1.10,2013-07-31 20:46:00,
2013-07-31 17:01:00,78.0,63.0,30.07,ENE,76,0.0,-999.0,61,-99.99,,,0.00,165,weatherlink.com 1.10,2013-07-31 21:01:00,
2013-07-31 17:16:00,77.8,63.0,30.07,ENE,72,2.0,-999.0,61,-99.99,,,0.00,237,weatherlink.com 1.10,2013-07-31 21:16:00,
2013-07-31 17:31:00,78.1,63.0,30.07,East,89,1.0,-999.0,61,-99.99,,,0.00,171,weatherlink.com 1.10,2013-07-31 21:31:00,
2013-07-31 17:46:00,77.6,63.0,30.06,South,185,1.0,-999.0,62,-99.99,,,0.00,134,weatherlink.com 1.10,2013-07-31 21:46:00,
2013-07-31 18:01:00,77.2,64.0,30.06,SE,141,1.0,-999.0,64,-99.99,,,0.00,118,weatherlink.com 1.10,2013-07-31 22:01:00,
2013-07-31 18:17:00,76.9,64.0,30.06,SW,231,0.0,-999.0,64,-99.99,,,0.00,93,weatherlink.com 1.10,2013-07-31 22:17:00,
2013-07-31 18:31:00,76.8,64.0,30.06,SE,136,4.0,-999.0,65,-99.99,,,0.00,83,weatherlink.com 1.10,2013-07-31 22:31:00,
2013-07-31 19:01:00,75.7,63.0,30.06,SSW,196,1.0,-999.0,64,-99.99,,,0.00,46,weatherlink.com 1.10,2013-07-31 23:01:00,
2013-07-31 19:16:00,75.3,63.0,30.05,SSW,197,0.0,-999.0,66,-99.99,,,0.00,35,weatherlink.com 1.10,2013-07-31 23:16:00,
2013-07-31 19:46:00,74.6,63.0,30.05,SSW,192,0.0,-999.0,68,-99.99,,,0.00,19,weatherlink.com 1.10,2013-07-31 23:46:00,
2013-07-31 20:02:00,74.1,64.0,30.05,SSW,192,0.0,-999.0,70,-99.99,,,0.00,7,weatherlink.com 1.10,2013-08-01 00:02:00,
2013-07-31 20:16:00,73.7,64.0,30.05,SSW,192,0.0,-999.0,72,-99.99,,,0.00,0,weatherlink.com 1.10,2013-08-01 00:16:00,
2013-07-31 20:32:00,73.2,64.0,30.05,SSW,194,0.0,-999.0,74,-99.99,,,0.00,0,weatherlink.com 1.10,2013-08-01 00:32:00,
2013-07-31 20:47:00,72.7,65.0,30.05,SSW,200,0.0,-999.0,76,-99.99,,,0.00,0,weatherlink.com 1.10,2013-08-01 00:47:00,
2013-07-31 21:02:00,72.4,65.0,30.05,SSW,192,0.0,-999.0,78,-99.99,,,0.00,0,weatherlink.com 1.10,2013-08-01 01:02:00,
2013-07-31 21:17:00,72.1,66.0,30.05,SSW,204,0.0,-999.0,80,-99.99,,,0.00,0,weatherlink.com 1.10,2013-08-01 01:17:00,
2013-07-31 21:32:00,71.8,66.0,30.05,SSW,204,0.0,-999.0,81,-99.99,,,0.00,0,weatherlink.com 1.10,2013-08-01 01:32:00,
2013-07-31 22:02:00,71.3,66.0,30.05,SW,223,0.0,-999.0,83,-99.99,,,0.00,0,weatherlink.com 1.10,2013-08-01 02:02:00,
2013-07-31 22:32:00,71.2,66.0,30.05,South,179,0.0,-999.0,83,-99.99,,,0.00,0,weatherlink.com 1.10,2013-08-01 02:32:00,
2013-07-31 22:47:00,71.0,66.0,30.05,SSE,162,1.0,-999.0,83,-99.99,,,0.00,0,weatherlink.com 1.10,2013-08-01 02:47:00,
2013-07-31 23:02:00,70.8,66.0,30.05,SW,231,0.0,-999.0,84,-99.99,,,0.00,0,weatherlink.com 1.10,2013-08-01 03:02:00,
2013-07-31 23:17:00,70.6,66.0,30.04,SW,231,0.0,-999.0,84,-99.99,,,0.00,0,weatherlink.com 1.10,2013-08-01 03:17:00,
2013-07-31 23:32:00,70.5,66.0,30.04,SW,215,0.0,-999.0,84,-99.99,,,0.00,0,weatherlink.com 1.10,2013-08-01 03:32:00,
2013-07-31 23:47:00,70.3,65.0,30.04,SW,223,0.0,-999.0,84,-99.99,,,0.00,0,weatherlink.com 1.10,2013-08-01 03:47:00,